Volver al catálogo

INTELSAT 33E DEB

ActivoGEO
NORAD 61994·DEBRIS· XX

Lanzado Aug 24, 2016 desde Guiana Space Centre

Loading…

TLE

ActualizadoSource: Space-Track

Época: Sep 13, 2026, 11:00 UTC

1 61994U 16053L   26256.45886624 -.00000281  00000-0  00000+0 0  9999
2 61994   1.8077  83.8431 0024716 214.7382 145.9046  1.00513365  6984

Sigue INTELSAT 33E DEB en tiempo real con AllMySat

Download on the App Store